• In Czech Republic
  • List of Countries
  • For 7 days
  • Water Temperature
  • Satellite Maps
  • Weather Map
  • Weather Widgets
  • user-avatar
    Login

    Hourly Weather Kitzbuhel

    Today, 27 May, Saturday

    Time Temperature Precipitation Wind Pressure Humidity
    00:00 +9°C° 0 mm 1 mps 679 mmHg 95%
    01:00 +9°C° 0 mm 1 mps 679 mmHg 94%
    02:00 +9°C° 0 mm 1 mps 678 mmHg 93%
    03:00 +8°C° 0 mm 1 mps 678 mmHg 91%
    04:00 +8°C° 0 mm 1 mps 678 mmHg 90%
    05:00 +10°C° 0 mm 1 mps 679 mmHg 84%
    06:00 +13°C° 0 mm 1 mps 680 mmHg 78%
    07:00 +15°C° 0 mm 1 mps 680 mmHg 72%
    08:00 +18°C° 0 mm 1 mps 681 mmHg 65%
    09:00 +20°C° 0 mm 1 mps 681 mmHg 59%
    10:00 +21°C° 0 mm 1 mps 681 mmHg 53%
    11:00 +21°C° 0 mm 2 mps 681 mmHg 52%
    12:00 +21°C° 0 mm 2 mps 681 mmHg 52%
    13:00 +23°C° 0 mm 2 mps 681 mmHg 52%
    14:00 +23°C° 0 mm 2 mps 681 mmHg 54%
    15:00 +23°C° 0 mm 2 mps 681 mmHg 57%
    16:00 +21°C° 0 mm 2 mps 681 mmHg 60%
    17:00 +20°C° 0.1 mm 2 mps 681 mmHg 70%
    18:00 +18°C° 0.1 mm 2 mps 680 mmHg 79%
    19:00 +18°C° 0.1 mm 1 mps 680 mmHg 89%
    20:00 +14°C° 0 mm 1 mps 680 mmHg 91%
    21:00 +12°C° 0 mm 1 mps 680 mmHg 94%
    22:00 +10°C° 0 mm 1 mps 680 mmHg 96%
    23:00 +10°C° 0 mm 1 mps 680 mmHg 96%

    Tomorrow, 28 May, Sunday

    Time Temperature Precipitation Wind Pressure Humidity
    00:00 +10°C° 0 mm 1 mps 680 mmHg 95%
    01:00 +10°C° 0 mm 2 mps 680 mmHg 94%
    02:00 +9°C° 0 mm 2 mps 680 mmHg 94%
    03:00 +9°C° 0 mm 2 mps 680 mmHg 93%
    04:00 +9°C° 0 mm 2 mps 680 mmHg 93%
    05:00 +12°C° 0 mm 1 mps 681 mmHg 88%
    06:00 +14°C° 0 mm 1 mps 681 mmHg 84%
    07:00 +16°C° 0 mm 1 mps 682 mmHg 79%
    08:00 +19°C° 0 mm 1 mps 682 mmHg 68%
    09:00 +21°C° 0 mm 1 mps 683 mmHg 58%
    10:00 +21°C° 0 mm 0 mps 683 mmHg 48%
    11:00 +24°C° 0 mm 1 mps 683 mmHg 46%
    12:00 +25°C° 0 mm 1 mps 683 mmHg 45%
    13:00 +25°C° 0 mm 1 mps 683 mmHg 44%
    14:00 +25°C° 0 mm 1 mps 682 mmHg 48%
    15:00 +25°C° 0 mm 1 mps 682 mmHg 51%
    16:00 +24°C° 0 mm 2 mps 682 mmHg 55%
    17:00 +23°C° 0.1 mm 1 mps 681 mmHg 65%
    18:00 +21°C° 0.1 mm 1 mps 681 mmHg 75%
    19:00 +19°C° 0.1 mm 1 mps 681 mmHg 85%
    20:00 +16°C° 0 mm 1 mps 680 mmHg 88%
    21:00 +14°C° 0 mm 1 mps 680 mmHg 90%
    22:00 +12°C° 0 mm 1 mps 680 mmHg 92%
    23:00 +12°C° 0 mm 1 mps 680 mmHg 92%

    Day after tomorrow, 29 May, Monday

    Time Temperature Precipitation Wind Pressure Humidity
    00:00 +12°C° 0 mm 1 mps 680 mmHg 92%
    01:00 +12°C° 0 mm 2 mps 680 mmHg 91%
    02:00 +12°C° 0 mm 2 mps 679 mmHg 91%
    03:00 +12°C° 0 mm 2 mps 679 mmHg 90%
    04:00 +12°C° 0 mm 2 mps 679 mmHg 90%
    05:00 +14°C° 0 mm 1 mps 679 mmHg 85%
    06:00 +16°C° 0 mm 1 mps 680 mmHg 80%
    07:00 +19°C° 0 mm 1 mps 680 mmHg 74%
    08:00 +21°C° 0 mm 1 mps 680 mmHg 66%
    09:00 +21°C° 0 mm 0 mps 681 mmHg 58%
    10:00 +23°C° 0 mm 0 mps 681 mmHg 49%
    11:00 +25°C° 0 mm 1 mps 681 mmHg 48%
    12:00 +26°C° 0 mm 1 mps 680 mmHg 48%
    13:00 +26°C° 0 mm 1 mps 680 mmHg 47%
    14:00 +26°C° 0.1 mm 1 mps 680 mmHg 50%
    15:00 +25°C° 0.1 mm 1 mps 680 mmHg 54%
    16:00 +25°C° 0.1 mm 1 mps 679 mmHg 58%
    17:00 +23°C° 0.3 mm 1 mps 679 mmHg 68%
    18:00 +22°C° 0.3 mm 1 mps 679 mmHg 77%
    19:00 +20°C° 0.3 mm 1 mps 678 mmHg 87%
    20:00 +18°C° 0.1 mm 1 mps 678 mmHg 89%
    21:00 +15°C° 0.1 mm 1 mps 678 mmHg 92%
    22:00 +12°C° 0.1 mm 1 mps 677 mmHg 94%
    23:00 +12°C° 0 mm 1 mps 677 mmHg 93%

    30 May, Tuesday

    Time Temperature Precipitation Wind Pressure Humidity
    00:00 +12°C° 0 mm 1 mps 677 mmHg 93%
    01:00 +12°C° 0 mm 1 mps 677 mmHg 92%
    02:00 +12°C° 0 mm 1 mps 677 mmHg 92%
    03:00 +12°C° 0 mm 1 mps 677 mmHg 92%
    04:00 +12°C° 0 mm 1 mps 677 mmHg 92%
    05:00 +14°C° 0 mm 1 mps 678 mmHg 87%
    06:00 +16°C° 0 mm 1 mps 678 mmHg 83%
    07:00 +20°C° 0 mm 1 mps 679 mmHg 78%
    08:00 +21°C° 0 mm 1 mps 679 mmHg 70%
    09:00 +23°C° 0 mm 1 mps 680 mmHg 62%
    10:00 +23°C° 0 mm 0 mps 680 mmHg 55%
    11:00 +25°C° 0.1 mm 1 mps 680 mmHg 54%
    12:00 +26°C° 0.1 mm 1 mps 680 mmHg 54%
    13:00 +26°C° 0.1 mm 1 mps 680 mmHg 54%
    14:00 +26°C° 0.7 mm 1 mps 679 mmHg 60%
    15:00 +25°C° 0.7 mm 1 mps 679 mmHg 66%
    16:00 +24°C° 0.7 mm 1 mps 679 mmHg 72%
    17:00 +23°C° 1.4 mm 1 mps 679 mmHg 78%
    18:00 +22°C° 1.4 mm 1 mps 679 mmHg 84%
    19:00 +20°C° 1.4 mm 1 mps 679 mmHg 90%
    20:00 +19°C° 1.2 mm 1 mps 679 mmHg 92%
    21:00 +18°C° 1.2 mm 1 mps 679 mmHg 94%
    22:00 +16°C° 1.2 mm 1 mps 679 mmHg 95%
    23:00 +16°C° 0.4 mm 1 mps 679 mmHg 96%

    31 May, Wednesday

    Time Temperature Precipitation Wind Pressure Humidity
    00:00 +15°C° 0.4 mm 1 mps 679 mmHg 96%
    01:00 +14°C° 0.4 mm 0 mps 679 mmHg 96%
    02:00 +15°C° 0.2 mm 1 mps 679 mmHg 96%
    03:00 +14°C° 0.2 mm 1 mps 679 mmHg 97%
    04:00 +14°C° 0.2 mm 1 mps 679 mmHg 97%
    05:00 +15°C° 0.2 mm 1 mps 679 mmHg 95%
    06:00 +16°C° 0.2 mm 1 mps 679 mmHg 94%
    07:00 +18°C° 0.2 mm 1 mps 680 mmHg 92%
    08:00 +20°C° 0.1 mm 1 mps 680 mmHg 86%
    09:00 +21°C° 0.1 mm 1 mps 680 mmHg 80%
    10:00 +22°C° 0.1 mm 1 mps 681 mmHg 74%
    11:00 +23°C° 0.6 mm 1 mps 680 mmHg 74%
    12:00 +23°C° 0.6 mm 1 mps 680 mmHg 74%
    13:00 +24°C° 0.6 mm 1 mps 680 mmHg 74%
    14:00 +23°C° 1.1 mm 1 mps 680 mmHg 76%
    15:00 +23°C° 1.1 mm 1 mps 680 mmHg 78%
    16:00 +23°C° 1.1 mm 1 mps 680 mmHg 80%
    17:00 +22°C° 1 mm 1 mps 680 mmHg 85%
    18:00 +21°C° 1 mm 1 mps 679 mmHg 89%
    19:00 +20°C° 1 mm 1 mps 679 mmHg 94%
    20:00 +18°C° 0.8 mm 1 mps 679 mmHg 95%
    21:00 +16°C° 0.8 mm 1 mps 679 mmHg 96%
    22:00 +15°C° 0.8 mm 1 mps 679 mmHg 97%
    23:00 +15°C° 0.3 mm 1 mps 679 mmHg 97%

    1 June, Thursday

    Time Temperature Precipitation Wind Pressure Humidity
    00:00 +14°C° 0.3 mm 1 mps 679 mmHg 97%
    01:00 +13°C° 0.3 mm 0 mps 679 mmHg 97%
    02:00 +12°C° 0.1 mm 0 mps 678 mmHg 97%
    03:00 +12°C° 0.1 mm 0 mps 678 mmHg 97%
    04:00 +13°C° 0.1 mm 1 mps 678 mmHg 98%
    05:00 +13°C° 0.3 mm 0 mps 679 mmHg 95%
    06:00 +15°C° 0.3 mm 0 mps 679 mmHg 93%
    07:00 +17°C° 0.3 mm 0 mps 679 mmHg 91%
    08:00 +20°C° 0.4 mm 1 mps 680 mmHg 87%
    09:00 +21°C° 0.4 mm 1 mps 680 mmHg 83%
    10:00 +22°C° 0.4 mm 1 mps 680 mmHg 79%
    11:00 +22°C° 0.9 mm 1 mps 680 mmHg 78%
    12:00 +22°C° 0.9 mm 1 mps 679 mmHg 77%
    13:00 +23°C° 0.9 mm 1 mps 679 mmHg 77%
    14:00 +22°C° 1.1 mm 1 mps 679 mmHg 79%
    15:00 +22°C° 1.1 mm 1 mps 679 mmHg 81%
    16:00 +21°C° 1.1 mm 1 mps 679 mmHg 83%
    17:00 +20°C° 1.8 mm 1 mps 679 mmHg 87%
    18:00 +19°C° 1.8 mm 1 mps 678 mmHg 92%
    19:00 +18°C° 1.8 mm 1 mps 678 mmHg 96%
    20:00 +16°C° 2.1 mm 1 mps 678 mmHg 97%
    21:00 +16°C° 2.1 mm 1 mps 678 mmHg 97%
    22:00 +15°C° 2.1 mm 1 mps 679 mmHg 97%
    23:00 +15°C° 0.1 mm 1 mps 678 mmHg 96%
    Show more